Tracking 35055 objects as of 18-Aug-2026
HD Live streaming from Space Station
objects crossing your sky now

STARLINK-38175


10-day predictions
STARLINK-38175 is classified as:


NORAD ID: 100161
Int'l Code: 2026-171P
Launch date: July 25, 2026
Source: United States (US)
Launch site: AIR FORCE WESTERN TEST RANGE (AFWTR)
Your satellite tracking list
Your tracking list is empty




NASA's NSSDC Master Catalog

Two Line Element Set (TLE):
1 A0161U 26171P   26229.81830520  .00146040  00000-0  96190-3 0  9996
2 A0161  97.2844 261.8207 0001519  74.5834 285.5599 15.75224453  3674
Source of the keplerian elements: AFSPC